风云一号A星 (FENGYUN 1A)

导读 | 星芒AI

FENGYUN 1A 是中国第一颗自主研制的极轨气象卫星,于1988年9月7日成功发射。该卫星属于风云一号系列,主要用于获取全球气象数据,提供云图、地表温度等信息,支持天气预报和气候研究。FENGYUN 1A 采用三轴稳定技术,搭载多光谱扫描辐射计,运行在太阳同步轨道上。尽管在轨运行约210天后因姿态控制系统故障而失效,但它为中国后续气象卫星的发展奠定了重要基础,标志着中国在气象卫星领域迈出了关键一步。

基本信息
目录编号:
19467
目录名称:
FENGYUN 1A
国际标识:
1988-080A
轨道中心:
EARTH
卫星名称:
风云一号A星
卫星全名:
风云一号A星 (FENGYUN 1A)
卫星状态:
在轨 (已飞行13567 天)
发射日期:
1988-09-06 UTC
国别 :
中国 (CN)
星等 :
--
轨道信息
数据来源 国际轨道数据 AOE轨道数据
星历时间 2025-10-28T22:24:03+0800
17小时前
查看轨道信息
2025-10-28T05:00:00+0800
1天前
查看轨道信息
半长轴 7259.877km 7259.877km
偏心率 0.0013069 0.0013014
轨道倾角 99.062° 99.061°
近地点辐角 266.842° 269.005°
升交点赤经 351.273° 350.551°
平近点角 93.125° 29.686°
近地点 872.254km 872.293km
远地点 891.23km 891.191km
周期 102.601分钟 102.601分钟
每日圈数 14.034887 14.034887
详细信息
平衡模式:
自旋稳定
覆盖范围:
亚洲
运营商:
夏威夷科学技术博物馆
运营商所在国:
美国
制造商(研发单位):
上海航天技术研究院
制造商所在国:
中国
使用方式:
暂无
卫星简介
风云气象卫星系列(FENGYUN Meteorological Satellite)是中国于1977年开始研制的气象卫星系列,目前发射了风云一号、风云二号、风云三号、风云四号等卫星系列。其中,风云二号系列、风云四号系列为风云静止卫星,风云一号系列、风云三号系列为风云极轨卫星。该卫星已退役。
2D轨道图
3D轨道图
轨道高度分析图
轨道倾角分析图
轨道综合分析图
查看轨道综合分析图